Weather History for KOGD - October, 2011

Change the Weather History Date:

Tuesday, October 4, 2011

  Actual Average Record
Temperature  
Mean Temperature 62 °F -  
Max Temperature 71 °F 70 °F 85 °F (1963)
Min Temperature 55 °F 40 °F 30 °F (1973)
Degree Days  
Heating Degree Days 2    
Growing Degree Days 12 (Base 50)    
Moisture  
Dew Point 50 °F    
Average Humidity 68    
Maximum Humidity 94    
Minimum Humidity 40    
Precipitation  
Precipitation 0.42 in - - ()
Sea Level Pressure  
Sea Level Pressure 29.81 in    
Wind  
Wind Speed 10 mph (SSE)    
Max Wind Speed 34 mph    
Max Gust Speed 48 mph    
Visibility 8 miles    
Events Rain , Thunderstorm    
Averages and records for this station are not official NWS values.
T = Trace of Precipitation, MM = Missing Value Source: NWS Daily Summary

Daily Weather History Graph

Daily Weather History Graph

Search for Another Location

Airport or City:

Trip Planner

Search our weather history database for the weather conditions in past years. The results will help you decide how hot, cold, wet, or windy it might be!

Date:

Astronomy

Oct. 04, 2011 Rise Set
Actual Time 7:27 AM MDT 7:05 PM MDT
Civil Twilight 7:00 AM MDT 7:32 PM MDT
Nautical Twilight 6:28 AM MDT 8:04 PM MDT
Astronomical Twilight 5:55 AM MDT 8:36 PM MDT
Moon 3:13 PM MDT (10/4) 12:11 AM MDT (10/4)
Length of Visible Light 12h 32m
Length of Day
11h 37m
First Quarter, 56% of the Moon is Illuminated
Oct 4
First Quarter
Oct 11
Full
Oct 19
Last Quarter
Oct 26
New
Nov 2
First Quarter

Hourly Weather History & Observations

Time (MDT) Temp. Dew Point Humidity Pressure Visibility Wind Dir Wind Speed Gust Speed Precip Events Conditions
12:53 AM 68.0 °F 43.0 °F 40% 29.78 in 10.0 mi SSE 12.7 mph 23.0 mph N/A   Mostly Cloudy
1:53 AM 64.0 °F 48.0 °F 56% 29.78 in 10.0 mi SE 9.2 mph 18.4 mph 0.00 in   Overcast
2:53 AM 64.0 °F 46.9 °F 54% 29.76 in 10.0 mi South 10.4 mph - 0.00 in Rain Light Rain
3:53 AM 64.0 °F 45.0 °F 50% 29.75 in 10.0 mi South 10.4 mph - N/A   Overcast
4:53 AM 64.4 °F 44.6 °F 49% 29.91 in 10.0 mi SE 9.2 mph - N/A   Overcast
5:53 AM 63.0 °F 44.1 °F 50% 29.77 in 10.0 mi South 9.2 mph - N/A   Overcast
6:53 AM 61.0 °F 50.0 °F 67% 29.78 in 10.0 mi SSE 6.9 mph - 0.03 in   Overcast
7:51 AM 59.0 °F 51.8 °F 77% 29.97 in 7.0 mi SSW 20.7 mph 27.6 mph 0.03 in Rain , Thunderstorm Light Rain
7:53 AM 57.9 °F 52.0 °F 81% 29.84 in 5.0 mi SSW 21.9 mph 28.8 mph 0.04 in Rain , Thunderstorm Heavy Thunderstorms and Rain
8:18 AM 55.4 °F 53.6 °F 94% 29.98 in 2.5 mi Variable 4.6 mph 17.3 mph 0.07 in Rain , Thunderstorm Rain
8:23 AM 55.4 °F 53.6 °F 94% 29.98 in 5.0 mi East 11.5 mph - 0.07 in Rain Light Rain
8:53 AM 57.9 °F 53.1 °F 84% 29.83 in 10.0 mi Variable 4.6 mph - 0.07 in   Partly Cloudy
9:53 AM 59.0 °F 53.1 °F 81% 29.85 in 7.0 mi Calm Calm - 0.00 in Rain Light Rain
10:02 AM 57.2 °F 53.6 °F 88% 30.00 in 1.8 mi SSW 3.5 mph - 0.05 in Rain Rain
10:15 AM 57.2 °F 53.6 °F 88% 30.00 in 2.0 mi South 12.7 mph 17.3 mph 0.09 in Rain Rain
10:22 AM 55.4 °F 51.8 °F 88% 29.96 in 2.5 mi ENE 9.2 mph 17.3 mph 0.12 in Rain Rain
10:29 AM 57.2 °F 53.6 °F 88% 29.95 in 5.0 mi NE 10.4 mph - 0.12 in Rain Light Rain
10:53 AM 60.1 °F 54.0 °F 80% 29.82 in 10.0 mi ENE 6.9 mph - 0.12 in   Mostly Cloudy
11:53 AM 64.9 °F 48.9 °F 56% 29.78 in 10.0 mi Calm Calm - N/A   Scattered Clouds
12:53 PM 68.0 °F 46.9 °F 47% 29.74 in 10.0 mi SSE 6.9 mph - N/A   Clear
1:53 PM 70.0 °F 45.0 °F 41% 29.70 in 10.0 mi WSW 4.6 mph - N/A   Mostly Cloudy
2:09 PM 68.0 °F 46.4 °F 46% 29.84 in 10.0 mi West 9.2 mph - N/A Thunderstorm Mostly Cloudy
2:19 PM 62.6 °F 51.8 °F 68% 29.88 in 1.2 mi WSW 34.5 mph 48.3 mph 0.11 in Rain , Thunderstorm Light Thunderstorms and Rain
2:27 PM 57.2 °F 51.8 °F 82% 29.88 in 0.8 mi West 10.4 mph 47.2 mph 0.16 in Rain , Thunderstorm Light Thunderstorms and Rain
2:30 PM 57.2 °F 53.6 °F 88% 29.88 in 3.0 mi West 8.1 mph 26.5 mph 0.16 in Rain , Thunderstorm Light Thunderstorms and Rain
2:53 PM 61.0 °F 54.0 °F 78% 29.75 in 10.0 mi ENE 13.8 mph - 0.16 in Thunderstorm Mostly Cloudy
3:08 PM 62.6 °F 51.8 °F 68% 29.86 in 10.0 mi NE 6.9 mph - N/A   Mostly Cloudy
3:53 PM 64.4 °F 48.2 °F 56% 29.84 in 10.0 mi North 6.9 mph - N/A   Partly Cloudy
4:53 PM 66.9 °F 46.9 °F 49% 29.68 in 10.0 mi Calm Calm - N/A   Clear
6:53 PM 63.0 °F 48.9 °F 60% 29.67 in 10.0 mi NW 8.1 mph - N/A   Clear
7:53 PM 62.1 °F 50.0 °F 65% 29.67 in 10.0 mi ENE 4.6 mph - N/A   Clear
8:53 PM 62.1 °F 50.0 °F 65% 29.67 in 10.0 mi Calm Calm - N/A   Scattered Clouds
9:53 PM 60.1 °F 52.0 °F 75% 29.66 in 10.0 mi SE 4.6 mph - N/A   Mostly Cloudy
10:53 PM 59.0 °F 48.9 °F 69% 29.65 in 10.0 mi South 6.9 mph - N/A   Scattered Clouds
11:53 PM 60.1 °F 46.9 °F 62% 29.63 in 10.0 mi South 10.4 mph - 0.00 in Rain Light Rain